Location: Balsareny
(41.8670°N, 1.8830°E)
Time: 02:18:54
(UTC+01:00)

ISS - Visible Passes

Search period start: 01 December 2021 00:00
Search period end: 11 December 2021 00:00
Orbit: 417 x 423 km, 51.6° (Epoch: 30 November)

Date Brightness Start Highest point End Pass type
(mag) Time Alt. Az. Time Alt. Az. Time Alt. Az.
01 Dec -2.0 18:44:41 10° NW 18:47:11 19° NNE 18:47:25 19° NNE visible
02 Dec -1.8 17:57:29 10° NW 17:59:46 17° N 18:02:03 10° NE visible
02 Dec -1.4 19:34:03 10° NW 19:35:14 19° NW 19:35:14 19° NW visible
03 Dec -2.7 18:46:57 10° NW 18:49:59 29° NNE 18:50:09 29° NNE visible
04 Dec -2.3 17:59:50 10° NW 18:02:36 23° NNE 18:05:12 11° ENE visible
04 Dec -2.0 19:36:21 10° WNW 19:38:12 30° WNW 19:38:12 30° WNW visible
05 Dec -3.8 18:49:09 10° NW 18:52:31 62° NNE 18:53:25 42° E visible
06 Dec -3.2 18:01:59 10° NW 18:05:14 40° NNE 18:08:28 10° E visible
06 Dec -1.8 19:39:01 10° WNW 19:41:55 27° SW 19:41:55 27° SW visible
07 Dec -2.7 18:51:32 10° WNW 18:54:49 46° SW 18:57:44 12° SSE visible
08 Dec -3.6 18:04:13 10° WNW 18:07:37 80° SW 18:11:00 10° SE visible
09 Dec -0.7 18:54:39 10° W 18:56:50 16° SW 18:59:01 10° S visible
10 Dec -1.3 18:06:48 10° WNW 18:09:44 27° SW 18:12:37 10° SSE visible
